Weather History for PABT - October, 2013

Change the Weather History Date:

Monday, October 7, 2013

  Actual Average Record
Temperature  
Mean Temperature 32 °F -  
Max Temperature 37 °F 32 °F 49 °F (1969)
Min Temperature 28 °F 21 °F -5 °F (1972)
Degree Days  
Heating Degree Days 32    
Moisture  
Dew Point 29 °F    
Average Humidity 88    
Maximum Humidity 96    
Minimum Humidity 63    
Precipitation  
Precipitation 0.00 in - - ()
Sea Level Pressure  
Sea Level Pressure 29.79 in    
Wind  
Wind Speed 1 mph (NE)    
Max Wind Speed 6 mph    
Max Gust Speed -    
Visibility 10 miles    
Events Fog , Snow    
Averages and records for this station are not official NWS values.
T = Trace of Precipitation, MM = Missing Value Source: NWS Daily Summary

Daily Weather History Graph

Daily Weather History Graph

Search for Another Location

Airport or City:

Trip Planner

Search our weather history database for the weather conditions in past years. The results will help you decide how hot, cold, wet, or windy it might be!

Date:

Astronomy

Oct. 07, 2013 Rise Set
Actual Time 8:39 AM AKDT 7:06 PM AKDT
Civil Twilight 7:46 AM AKDT 7:59 PM AKDT
Nautical Twilight 6:44 AM AKDT 9:00 PM AKDT
Astronomical Twilight 5:38 AM AKDT 10:06 PM AKDT
Moon 1:19 PM AKDT (10/7) 7:17 PM AKDT (10/7)
Length of Visible Light 12h 12m
Length of Day
10h 26m
Waxing Crescent, 9% of the Moon is Illuminated
Oct 7
Waxing Crescent
Oct 11
First Quarter
Oct 18
Full
Oct 26
Last Quarter
Nov 3
New

Hourly Weather History & Observations

Time (AKDT) Temp. Windchill Dew Point Humidity Pressure Visibility Wind Dir Wind Speed Gust Speed Precip Events Conditions
12:53 AM 30.9 °F - 30.0 °F 96% 29.75 in 10.0 mi Calm Calm - N/A   Overcast
1:53 AM 30.9 °F - 30.0 °F 96% 29.75 in 10.0 mi Calm Calm - N/A   Overcast
2:53 AM 28.9 °F - 28.0 °F 96% 29.75 in 10.0 mi Calm Calm - N/A   Partly Cloudy
3:53 AM 28.0 °F - 27.0 °F 96% 29.76 in 10.0 mi Calm Calm - N/A   Mostly Cloudy
4:53 AM 28.9 °F - 28.0 °F 96% 29.77 in 10.0 mi Calm Calm - N/A   Overcast
5:53 AM 30.0 °F - 28.9 °F 96% 29.77 in 10.0 mi Calm Calm - N/A   Overcast
6:53 AM 30.0 °F - 28.9 °F 96% 29.77 in 10.0 mi Calm Calm - N/A   Overcast
7:53 AM 30.0 °F - 28.9 °F 96% 29.78 in 10.0 mi Calm Calm - N/A Fog Mostly Cloudy
8:49 AM 30.2 °F - 28.4 °F 93% 29.75 in 10.0 mi Calm Calm - N/A Fog Patches of Fog
8:53 AM 30.0 °F - 28.9 °F 96% 29.79 in 10.0 mi Calm Calm - N/A Fog Patches of Fog
9:53 AM 30.9 °F - 30.0 °F 96% 29.80 in 10.0 mi Calm Calm - N/A Fog Patches of Fog
10:53 AM 32.0 °F - 30.0 °F 92% 29.81 in 5.0 mi Calm Calm - N/A Fog Patches of Fog
11:53 AM 33.1 °F - 30.9 °F 92% 29.82 in 4.0 mi Calm Calm - N/A Fog , Snow Light Snow
12:44 PM 33.8 °F - 32.0 °F 93% 29.78 in 10.0 mi Calm Calm - N/A Snow Light Snow
12:53 PM 34.0 °F - 30.9 °F 89% 29.83 in 10.0 mi Calm Calm - N/A   Overcast
1:53 PM 36.0 °F - 32.0 °F 86% 29.83 in 10.0 mi Calm Calm - N/A   Overcast
2:53 PM 37.0 °F - 30.9 °F 79% 29.83 in 10.0 mi Calm Calm - N/A   Overcast
3:53 PM 37.0 °F 34.5 °F 28.9 °F 73% 29.83 in 10.0 mi NNE 3.5 mph - N/A   Overcast
4:53 PM 36.0 °F 32.1 °F 30.0 °F 79% 29.83 in 10.0 mi SE 4.6 mph - N/A   Overcast
5:53 PM 36.0 °F 32.1 °F 30.9 °F 82% 29.83 in 10.0 mi NE 4.6 mph - N/A   Overcast
6:53 PM 35.1 °F - 30.0 °F 82% 29.83 in 10.0 mi Calm Calm - N/A   Overcast
7:53 PM 35.1 °F 31.0 °F 28.0 °F 76% 29.82 in 10.0 mi NNE 4.6 mph - N/A   Overcast
8:53 PM 30.9 °F - 27.0 °F 85% 29.81 in 10.0 mi Calm Calm - N/A   Scattered Clouds
9:53 PM 32.0 °F 28.7 °F 27.0 °F 82% 29.80 in 10.0 mi NNE 3.5 mph - N/A   Mostly Cloudy
10:53 PM 30.9 °F 26.2 °F 27.0 °F 85% 29.78 in 10.0 mi NE 4.6 mph - N/A   Scattered Clouds
11:53 PM 30.0 °F 24.1 °F 26.1 °F 85% 29.76 in 10.0 mi NNE 5.8 mph - N/A   Partly Cloudy